#timestamp,LO_Frequency,Hit,StdDev 
1609257615.6,286047001.2,N
1609257635.5,286047000.8,N
1609257655.3,286046998.6,N
1609257675.1,286047000.8,N
1609257695.9,286046998.8,N
1609257715.7,286046999.2,N
1609257735.5,286046998.8,N
1609257755.4,286046999.5,N
1609257775.2,286046998.7,N
1609257795.0,286046999.1,N
1609257795.9,286046999.1,N
1609257815.8,286046998.4,N
1609257835.6,286046998.4,N
1609257855.4,286046998.8,N
1609257875.3,286047001.1,N
1609257895.1,286047000.7,N
1609257896.0,286047000.7,N
1609257915.8,286047000.4,N
1609257935.7,286047001.0,N
1609257955.5,286047000.9,N
1609257975.3,286047000.9,N
1609257995.2,286047000.2,N
1609258015.9,286047002.6,N
1609258035.7,286047002.3,N
1609258055.6,286047002.6,N
1609258075.4,286047002.4,N
1609258095.2,286046999.7,N
1609258115.1,286047000.3,N
1609258116.0,286047000.3,N
1609258135.8,286047000.4,N
1609258155.6,286046998.2,N
1609258175.5,286046998.4,N
1609258195.3,286047001.2,N
1609258215.1,286046998.1,N
1609258235.9,286047001.1,N
1609258255.7,286047000.4,N
1609258275.5,286047000.1,N
1609258295.4,286047002.8,N
1609258315.2,286047000.3,N
1609258335.0,286047000.3,N
1609258335.9,286047000.3,N
1609258355.8,286047000.4,N
1609258375.6,286047001.2,N
1609258395.4,286046998.8,N
1609258415.3,286046998.8,N
1609258435.1,286046998.6,N
1609258436.0,286046998.6,N
1609258455.8,286047000.8,N
1609258475.7,286047001.1,N
1609258495.5,286047000.7,N
1609258515.3,286047002.8,N
1609258535.2,286047000.0,N
1609258555.9,286047000.5,N
1609258575.7,286047000.4,N
1609258595.6,286047001.2,N
1609258615.4,286046998.6,N
1609258635.2,286047001.2,N
1609258655.1,286046999.9,N
1609258656.0,286046999.9,N
1609258675.8,286047001.0,N
1609258695.6,286047000.7,N
1609258715.5,286046998.2,N
1609258735.3,286047001.2,N
1609258755.1,286046998.1,N
1609258775.9,286046998.4,N
1609258795.7,286047001.2,N
1609258815.5,286047001.0,N
1609258835.4,286047001.2,N
1609258855.2,286047000.6,N
1609258875.0,286046998.5,N
1609258875.9,286046998.5,N
1609258895.8,286046999.4,N
1609258915.6,286046996.9,N
1609258935.4,286046999.2,N
1609258955.3,286046998.8,N
1609258975.1,286046996.5,N
1609258976.0,286046996.5,N
1609258995.8,286046996.5,N
1609259015.7,286046999.3,N
1609259035.5,286046996.5,N
1609259055.3,286046999.2,N
1609259075.2,286046999.0,N
1609259095.9,286046999.1,N
1609259115.7,286046996.5,N
1609259135.6,286046996.5,N
1609259155.4,286046997.2,N
1609259175.2,286046997.7,N
1609259195.1,286046997.9,N
1609259196.0,286046997.9,N
1609259215.8,286046996.9,N
1609259235.6,286046999.4,N
1609259255.5,286046997.1,N
1609259275.3,286046997.2,N
1609259295.1,286046999.1,N
1609259315.9,286046996.8,N
1609259335.7,286046999.5,N
1609259355.5,286046999.1,N
1609259375.4,286046999.3,N
1609259395.2,286046998.8,N
1609259415.0,286046998.9,N
1609259415.9,286046998.9,N
1609259435.8,286046999.0,N
1609259455.6,286046999.4,N
1609259475.4,286046999.0,N
1609259495.3,286046998.1,N
1609259515.1,286046999.0,N
1609259516.0,286046999.0,N
1609259535.8,286047000.1,N
1609259555.7,286046998.2,N
1609259575.5,286046998.1,N
1609259595.3,286047000.3,N
1609259615.2,286047000.6,N
1609259635.9,286047000.9,N
1609259655.7,286047000.8,N
1609259675.6,286047001.0,N
1609259695.4,286047000.5,N
1609259715.2,286047000.6,N
1609259735.1,286046999.7,N
1609259736.0,286046999.7,N
1609259755.8,286047000.0,N
1609259775.6,286047004.3,Y
1609259795.5,286047001.7,P
1609259815.3,286047004.0,P
1609259835.1,286047004.1,N
1609259855.9,286047004.2,N
1609259875.7,286047004.2,N
1609259895.5,286047004.4,N
1609259915.4,286047003.7,N
1609259935.2,286047003.5,N
1609259955.0,286047003.3,N
1609259955.9,286047003.3,N
1609259975.8,286047005.6,Y
1609259995.6,286047001.6,P
1609260015.4,286047001.5,N
1609260035.3,286047002.5,P
1609260055.1,286047004.1,Y
1609260075.8,286047002.4,P
1609260095.7,286047004.4,P
1609260115.5,286047003.7,P
1609260135.3,286047003.9,Y
1609260155.2,286046999.7,P
1609260175.0,286046999.9,N
1609260175.9,286046999.9,N
1609260195.7,286047002.8,N
1609260215.6,286047002.2,N
1609260235.4,286047001.6,N
1609260255.2,286047002.0,N
1609260275.1,286047003.9,N
1609260276.0,286047003.9,N
1609260295.8,286047003.3,N
1609260315.6,286047006.0,Y
1609260335.5,286047001.3,P
1609260355.3,286047001.4,P
1609260375.1,286047001.7,P
1609260395.9,286047002.9,Y
1609260415.7,286047004.3,P
1609260435.5,286047003.2,N
1609260455.4,286047005.9,P
1609260475.2,286047002.9,N
1609260495.1,286047004.7,Y
1609260496.0,286047004.7,P
1609260515.8,286047001.9,P
1609260535.6,286047002.2,N
1609260555.5,286047002.1,N
1609260575.3,286047001.9,N
1609260595.1,286047004.4,Y
1609260615.9,286047002.1,P
1609260635.7,286047000.0,N
1609260655.5,286047002.7,N
1609260675.4,286047003.6,Y
1609260695.2,286047001.0,P
1609260715.0,286047002.7,P
1609260715.9,286047002.7,P
1609260735.8,286047004.2,Y
1609260755.6,286047002.5,P
1609260775.4,286047000.7,P
1609260795.3,286046999.8,N
1609260815.1,286047002.1,N
1609260835.8,286047004.1,Y
1609260855.7,286047001.7,P
1609260875.5,286047002.2,P
1609260895.3,286047001.5,P
1609260915.2,286047002.1,Y
1609260935.0,286047002.6,P
1609260935.9,286047002.6,P
1609260955.7,286047002.8,P
1609260975.6,286046999.7,N
1609260995.4,286047002.2,N
1609261015.2,286047002.5,N
1609261035.1,286047001.9,N
1609261036.0,286047001.9,N
1609261055.8,286047004.3,Y
1609261075.7,286046999.9,P
1609261095.5,286047002.5,N
1609261115.3,286047003.5,P
1609261135.2,286047005.8,Y
1609261155.9,286047003.7,P
1609261175.7,286047005.9,P
1609261195.6,286047003.2,N
